TimeEST,TemperatureF,Dew PointF,Humidity,Sea Level PressureIn,VisibilityMPH,Wind Direction,Wind SpeedMPH,Gust SpeedMPH,PrecipitationIn,Events,Conditions,WindDirDegrees,DateUTC
12:53 AM,64.9,59.0,81,29.99,10.0,West,3.5,-,N/A,,Mostly Cloudy,270,2013-02-14 05:53:00
1:53 AM,64.9,59.0,81,29.97,10.0,Calm,Calm,-,N/A,,Overcast,0,2013-02-14 06:53:00
2:53 AM,64.9,57.9,78,29.96,10.0,Calm,Calm,-,N/A,,Overcast,0,2013-02-14 07:53:00
3:53 AM,64.0,59.0,84,29.94,10.0,ESE,4.6,-,N/A,,Mostly Cloudy,110,2013-02-14 08:53:00
4:53 AM,63.0,60.1,90,29.95,10.0,Calm,Calm,-,0.00,,Overcast,0,2013-02-14 09:53:00
5:53 AM,63.0,60.1,90,29.96,10.0,Calm,Calm,-,0.00,,Overcast,0,2013-02-14 10:53:00
6:53 AM,64.0,60.1,87,29.97,10.0,Calm,Calm,-,N/A,,Mostly Cloudy,0,2013-02-14 11:53:00
7:53 AM,64.0,61.0,90,29.99,10.0,Calm,Calm,-,N/A,,Mostly Cloudy,0,2013-02-14 12:53:00
8:53 AM,64.9,60.1,84,30.02,10.0,NW,4.6,-,N/A,,Mostly Cloudy,310,2013-02-14 13:53:00
9:53 AM,66.9,59.0,76,30.03,10.0,NW,6.9,-,N/A,,Mostly Cloudy,320,2013-02-14 14:53:00
10:53 AM,66.0,59.0,78,30.05,10.0,NNW,6.9,-,0.00,,Overcast,330,2013-02-14 15:53:00
11:53 AM,64.9,62.1,90,30.04,7.0,North,10.4,-,0.03,Rain,Rain,350,2013-02-14 16:53:00
12:53 PM,64.9,63.1,94,30.01,10.0,NNE,9.2,-,0.02,Rain,Light Rain,20,2013-02-14 17:53:00
1:53 PM,64.9,61.7,89,30.00,10.0,Calm,Calm,-,0.00,Rain,Light Rain,0,2013-02-14 18:53:00
2:53 PM,64.9,57.9,78,29.97,10.0,North,5.8,-,0.00,,Overcast,350,2013-02-14 19:53:00
3:53 PM,64.9,57.9,78,29.98,10.0,Calm,Calm,-,0.00,Rain,Light Rain,0,2013-02-14 20:53:00
4:53 PM,63.0,61.0,93,30.01,7.0,NW,4.6,-,0.02,Rain,Light Rain,310,2013-02-14 21:53:00
5:53 PM,62.1,61.0,96,30.01,6.0,NNW,6.9,-,0.08,Rain,Rain,330,2013-02-14 22:53:00
6:03 PM,62.6,60.8,94,30.02,8.0,North,5.8,-,0.01,Rain,Light Rain,10,2013-02-14 23:03:00
6:24 PM,60.8,60.8,100,30.02,8.0,North,6.9,-,0.05,Rain,Light Rain,10,2013-02-14 23:24:00
6:36 PM,60.8,60.8,100,30.01,10.0,North,11.5,-,0.06,Rain,Light Rain,10,2013-02-14 23:36:00
6:53 PM,60.1,59.0,96,30.02,10.0,North,11.5,-,0.07,Rain,Light Rain,360,2013-02-14 23:53:00
7:38 PM,60.8,59.0,94,30.03,10.0,NNE,5.8,-,0.01,Rain,Light Rain,30,2013-02-15 00:38:00
7:53 PM,60.1,59.0,96,30.04,10.0,ENE,3.5,-,0.01,,Overcast,60,2013-02-15 00:53:00
8:53 PM,57.9,57.0,97,30.06,10.0,North,6.9,-,N/A,,Overcast,350,2013-02-15 01:53:00
9:53 PM,57.9,57.9,100,30.02,10.0,SE,6.9,-,0.00,,Overcast,130,2013-02-15 02:53:00
10:53 PM,59.0,59.0,100,30.03,10.0,SE,3.5,-,0.00,Rain,Light Rain,140,2013-02-15 03:53:00
11:53 PM,59.0,59.0,100,30.01,10.0,East,4.6,-,0.02,Rain,Light Rain,80,2013-02-15 04:53:00